Weather History for Crossville, TN

Change the Weather History Date:

Tuesday, October 2, 2012

  Actual Average Record
Temperature  
Mean Temperature 64 °F 61 °F  
Max Temperature 70 °F 72 °F 86 °F (1986)
Min Temperature 58 °F 51 °F 31 °F (1974)
Degree Days  
Heating Degree Days 1    
Month to date heating degree days 3  
Since 1 July heating degree days 51  
Cooling Degree Days 0    
Month to date cooling degree days 0  
Year to date cooling degree days 1156  
Growing Degree Days 13 (Base 50)    
Moisture  
Dew Point 60 °F    
Average Humidity 83    
Maximum Humidity 100    
Minimum Humidity 66    
Precipitation  
Precipitation 0.07 in 0.11 in 0.73 in (1961)
Month to date precipitation 1.38 0.22  
Year to date precipitation 38.32 42.22  
Sea Level Pressure  
Sea Level Pressure 29.82 in    
Wind  
Wind Speed 4 mph (WSW)    
Max Wind Speed 13 mph    
Max Gust Speed 20 mph    
Visibility 6 miles    
Events Fog , Rain    
T = Trace of Precipitation, MM = Missing Value Source: NWS Daily Summary

Daily Weather History Graph

Daily Weather History Graph

Search for Another Location

Airport:

Trip Planner

Search our weather history database for the weather conditions in past years. The results will help you decide how hot, cold, wet, or windy it might be!

Date:

Astronomy

Oct. 02, 2012 Rise Set
Actual Time 6:36 AM CDT 6:21 PM CDT
Civil Twilight 6:11 AM CDT 6:47 PM CDT
Nautical Twilight 5:41 AM CDT 7:17 PM CDT
Astronomical Twilight 5:11 AM CDT 7:46 PM CDT
Moon 7:41 PM CDT (10/2) 8:56 AM CDT (10/2)
Length of Visible Light 12h 36m
Length of Day
11h 45m
Waning Gibbous, 94% of the Moon is Illuminated
Oct 2
Waning Gibbous
Oct 8
Last Quarter
Oct 15
New
Oct 21
First Quarter
Oct 29
Full

Hourly Weather History & Observations

Time (CDT) Temp. Dew Point Humidity Pressure Visibility Wind Dir Wind Speed Gust Speed Precip Events Conditions
12:03 AM 68.0 °F 64.4 °F 88% 29.68 in 10.0 mi WSW 4.6 mph - 0.00 in Rain Light Rain
12:27 AM 66.2 °F 64.4 °F 94% 29.69 in 10.0 mi WSW 4.6 mph - 0.02 in   Overcast
12:53 AM 66.9 °F 64.9 °F 93% 29.65 in 10.0 mi Variable 5.8 mph - 0.02 in   Overcast
1:53 AM 66.0 °F 64.0 °F 93% 29.65 in 9.0 mi West 3.5 mph - N/A   Overcast
2:31 AM 64.4 °F 64.4 °F 100% 29.69 in 7.0 mi Calm Calm - N/A   Mostly Cloudy
2:42 AM 64.4 °F 64.4 °F 100% 29.70 in 7.0 mi Calm Calm - N/A   Mostly Cloudy
2:47 AM 64.4 °F 62.6 °F 94% 29.70 in 7.0 mi Calm Calm - N/A   Mostly Cloudy
2:53 AM 64.9 °F 63.0 °F 93% 29.65 in 6.0 mi Calm Calm - N/A   Mostly Cloudy
3:04 AM 64.4 °F 62.6 °F 94% 29.70 in 3.0 mi Calm Calm - N/A   Overcast
3:13 AM 64.4 °F 64.4 °F 100% 29.69 in 5.0 mi Calm Calm - N/A   Overcast
3:53 AM 64.9 °F 63.0 °F 93% 29.65 in 5.0 mi West 3.5 mph - N/A   Overcast
4:48 AM 64.4 °F 62.6 °F 94% 29.71 in 2.0 mi Calm Calm - N/A   Overcast
4:53 AM 64.0 °F 63.0 °F 96% 29.66 in 1.8 mi Calm Calm - N/A   Overcast
5:01 AM 62.6 °F 62.6 °F 100% 29.71 in 0.5 mi Calm Calm - N/A Fog Fog
5:22 AM 62.6 °F 62.6 °F 100% 29.71 in 0.2 mi Calm Calm - N/A Fog Fog
5:37 AM 62.6 °F 62.6 °F 100% 29.72 in 1.0 mi Calm Calm - N/A   Overcast
5:40 AM 62.6 °F 62.6 °F 100% 29.72 in 3.0 mi Calm Calm - N/A   Overcast
5:53 AM 63.0 °F 62.1 °F 97% 29.68 in 8.0 mi South 3.5 mph - N/A   Overcast
6:53 AM 64.0 °F 61.0 °F 90% 29.69 in 8.0 mi Variable 3.5 mph - N/A   Mostly Cloudy
8:53 AM 64.9 °F 60.1 °F 84% 29.73 in 10.0 mi South 3.5 mph - N/A   Overcast
9:53 AM 66.0 °F 59.0 °F 78% 29.75 in 10.0 mi Variable 6.9 mph - N/A   Overcast
10:53 AM 66.0 °F 57.0 °F 73% 29.76 in 10.0 mi Variable 6.9 mph - N/A   Overcast
11:53 AM 69.1 °F 57.0 °F 65% 29.76 in 10.0 mi South 9.2 mph - N/A   Mostly Cloudy
12:36 PM 69.8 °F 57.2 °F 64% 29.81 in 10.0 mi South 10.4 mph - N/A   Overcast
12:53 PM 69.1 °F 57.0 °F 65% 29.77 in 10.0 mi Variable 3.5 mph - N/A   Overcast
1:08 PM 68.0 °F 57.2 °F 68% 29.82 in 10.0 mi SW 9.2 mph - N/A   Overcast
1:25 PM 64.4 °F 59.0 °F 83% 29.83 in 10.0 mi WSW 8.1 mph - N/A   Overcast
1:34 PM 64.4 °F 60.8 °F 88% 29.83 in 10.0 mi West 9.2 mph - N/A   Overcast
1:41 PM 64.4 °F 59.0 °F 83% 29.83 in 10.0 mi West 11.5 mph - N/A   Overcast
1:53 PM 63.0 °F 59.0 °F 87% 29.79 in 10.0 mi West 8.1 mph - N/A   Overcast
2:53 PM 62.1 °F 59.0 °F 90% 29.80 in 4.0 mi West 6.9 mph - N/A   Overcast
3:25 PM 62.6 °F 59.0 °F 88% 29.86 in 2.5 mi West 6.9 mph - 0.01 in Rain Light Rain
3:34 PM 62.6 °F 59.0 °F 88% 29.86 in 3.0 mi West 5.8 mph - 0.01 in   Overcast
3:53 PM 62.1 °F 59.0 °F 90% 29.83 in 4.0 mi West 5.8 mph - 0.01 in   Overcast
4:27 PM 62.6 °F 59.0 °F 88% 29.88 in 2.0 mi WSW 4.6 mph - 0.01 in   Overcast
4:37 PM 62.6 °F 59.0 °F 88% 29.88 in 6.0 mi Variable 3.5 mph - 0.01 in   Overcast
4:53 PM 62.1 °F 59.0 °F 90% 29.85 in 6.0 mi Calm Calm - 0.01 in   Overcast
5:20 PM 62.6 °F 59.0 °F 88% 29.90 in 1.8 mi WSW 5.8 mph - N/A   Overcast
5:36 PM 62.6 °F 57.2 °F 82% 29.91 in 2.5 mi WSW 3.5 mph - 0.01 in   Overcast
5:43 PM 62.6 °F 57.2 °F 82% 29.91 in 3.0 mi West 4.6 mph - 0.01 in   Overcast
5:53 PM 62.1 °F 57.9 °F 86% 29.87 in 2.5 mi WSW 4.6 mph - 0.01 in   Overcast
6:00 PM 60.8 °F 57.2 °F 88% 29.92 in 4.0 mi WSW 4.6 mph - N/A   Overcast
6:17 PM 60.8 °F 57.2 °F 88% 29.92 in 2.5 mi West 4.6 mph - N/A   Overcast
6:24 PM 60.8 °F 57.2 °F 88% 29.92 in 1.8 mi WSW 4.6 mph - 0.01 in Rain Light Rain
6:31 PM 60.8 °F 57.2 °F 88% 29.93 in 2.5 mi West 3.5 mph - 0.01 in Rain Light Rain
6:35 PM 60.8 °F 57.2 °F 88% 29.93 in 2.5 mi WSW 4.6 mph - 0.01 in Rain Light Rain
6:53 PM 60.1 °F 57.0 °F 90% 29.90 in 3.0 mi WSW 4.6 mph - 0.02 in Rain Light Rain
7:06 PM 62.6 °F 57.2 °F 82% 29.94 in 3.0 mi West 5.8 mph - 0.01 in Rain Light Rain
7:30 PM 60.8 °F 57.2 °F 88% 29.95 in 9.0 mi WSW 3.5 mph - 0.02 in   Overcast
7:40 PM 60.8 °F 57.2 °F 88% 29.96 in 10.0 mi Calm Calm - 0.02 in   Overcast
7:53 PM 61.0 °F 57.0 °F 87% 29.92 in 10.0 mi WSW 4.6 mph - 0.02 in   Overcast
7:55 PM 60.8 °F 57.2 °F 88% 29.96 in 10.0 mi WSW 4.6 mph - N/A   Overcast
8:38 PM 60.8 °F 55.4 °F 82% 29.99 in 10.0 mi WSW 5.8 mph - N/A   Overcast
9:53 PM 59.0 °F 55.0 °F 87% 29.97 in 10.0 mi Calm Calm - N/A   Overcast
10:53 PM 57.9 °F 55.9 °F 93% 29.97 in 9.0 mi Calm Calm - N/A   Overcast
11:00 PM 57.2 °F 55.4 °F 94% 30.01 in 9.0 mi Calm Calm - N/A   Overcast
11:53 PM 59.0 °F 55.0 °F 87% 29.99 in 9.0 mi Calm Calm - N/A   Overcast